Home   Weather   Kakata   Past weeks

Flag for Liberia Past Weather in Kakata, Liberia — Yesterday and Last 2 Weeks

Now
73 °F

Rain. Partly cloudy.


Feels Like: 70 °F
Forecast: N/A
Wind: 7 mph from East

Location: Roberts Field

Current Time: Aug 18, 2017 at 10:16:15 pm

Latest Report: Aug 18, 2017 at 8:30 pm


Visibility: 3 mi

Pressure: 29.86 "Hg

Humidity: 94%

Dew Point: 72 °F

Location of KakataLocation

Past Weather in Kakata — Graph

°F

Kakata Temperature Yesterday

Maximum temperature yesterday: 82 °F (at 12:00 pm)
Minimum temperature yesterday: 73 °F (at 5:00 am)
Average temperature yesterday: 78 °F

High & Low Weather Summary for the Past Weeks

 TemperatureHumidityPressure
High86 °F (Aug 11, 3:00 pm)100% (Aug 8, 7:30 am)30.04 "Hg (Aug 8, 7:30 am)
Low72 °F (Aug 9, 1:30 am)66% (Aug 8, 1:00 pm)29.77 "Hg (Aug 18, 4:00 pm)
Average78 °F88%29.94 "Hg
* Reported Aug 3 8:00 pm — Aug 18 8:30 pm, Kakata. Weather by CustomWeather, © 2017

Note: Actual official high and low records may vary slightly from our data, if they occured in-between our weather recording intervals... More about our weather records

Advertising

Kakata Weather History for the Previous 24 Hours

Scroll right to see more
 ConditionsComfort  
Time TempWeatherWind HumidityBarometerVisibility
8:30 pm
Fri, Aug 18
73 °FRain. Partly cloudy.7 mph94%29.86 "Hg3 mi
7:30 pm79 °FLight rain. Partly sunny.No wind89%29.83 "Hg5 mi
7:00 pm79 °FPartly sunny.No wind89%29.83 "HgN/A
6:30 pm79 °FPartly sunny.9 mph89%29.80 "HgN/A
5:30 pm81 °FPartly sunny.8 mph84%29.80 "HgN/A
4:00 pm81 °FPartly sunny.12 mph84%29.77 "HgN/A
3:30 pm81 °FPartly sunny.9 mph84%29.80 "HgN/A
3:00 pm82 °FPartly sunny.No wind84%29.80 "HgN/A
2:30 pm81 °FPartly sunny.No wind89%29.80 "HgN/A
2:00 pm79 °FPartly sunny.6 mph94%29.83 "HgN/A
1:30 pm79 °FPartly sunny.10 mph89%29.86 "HgN/A
1:00 pm79 °FLight rain. Partly sunny.15 mph89%29.86 "Hg4 mi
12:30 pm79 °FPartly sunny.14 mph89%29.89 "HgN/A
12:00 pm79 °FPartly sunny.14 mph84%29.89 "HgN/A
11:30 am79 °FPartly sunny.13 mph94%29.89 "HgN/A
11:00 am81 °FRain. Partly sunny.8 mph84%29.89 "HgN/A
10:00 am81 °FPartly sunny.10 mph84%29.89 "HgN/A
9:30 am81 °FPartly sunny.7 mph84%29.89 "HgN/A
9:00 am77 °FPartly sunny.No wind94%29.89 "HgN/A
8:30 am77 °FPartly sunny.No wind94%29.86 "Hg6 mi
8:00 am77 °FPartly sunny.No wind94%29.86 "Hg6 mi
7:30 am77 °FPassing clouds.No wind94%29.86 "Hg5 mi
6:30 am77 °FPassing clouds.No wind94%29.86 "Hg4 mi
6:00 am77 °FPassing clouds.No wind94%29.86 "HgN/A
11:00 pm
Thu, Aug 17
77 °FPassing clouds.3 mph94%29.92 "HgN/A
10:00 pm77 °FPassing clouds.No wind94%29.92 "HgN/A
Weather by CustomWeather, © 2017

See weather overviewHow to use our weather pages